Weather History for Norfolk, NE

Change the Weather History Date:

Sunday, December 2, 2012

  Actual Average Record
Temperature  
Mean Temperature 44 °F 28 °F  
Max Temperature 64 °F 38 °F 66 °F (1998)
Min Temperature 24 °F 18 °F -7 °F (1919)
Degree Days  
Heating Degree Days 21 37  
Month to date heating degree days 42 74  
Since 1 July heating degree days 1465 1519  
Cooling Degree Days 0 0  
Month to date cooling degree days 0 0  
Year to date cooling degree days 1373 915  
Moisture  
Dew Point 33 °F    
Average Humidity 64    
Maximum Humidity 92    
Minimum Humidity 36    
Precipitation  
Precipitation 0.00 in 0.03 in 2.13 in (1933)
Month to date precipitation 0.00 0.06  
Year to date precipitation 13.37 26.72  
Snow  
Snow 0.00 in 0.20 in - ()
Month to date snowfall 0.0 0.4  
Since 1 July snowfall T 5.3  
Snow Depth 0.00 in    
Sea Level Pressure  
Sea Level Pressure 29.87 in    
Wind  
Wind Speed 9 mph (SSE)    
Max Wind Speed 21 mph    
Max Gust Speed 26 mph    
Visibility 10 miles    
Events      
T = Trace of Precipitation, MM = Missing Value Source: NWS Daily Summary

Daily Weather History Graph

Daily Weather History Graph

Search for Another Location

Airport:

Trip Planner

Search our weather history database for the weather conditions in past years. The results will help you decide how hot, cold, wet, or windy it might be!

Date:

Astronomy

Dec. 02, 2012 Rise Set
Actual Time 7:39 AM CST 4:58 PM CST
Civil Twilight 7:08 AM CST 5:30 PM CST
Nautical Twilight 6:33 AM CST 6:04 PM CST
Astronomical Twilight 6:00 AM CST 6:38 PM CST
Moon 8:49 PM CST (12/2) 10:28 AM CST (12/2)
Length of Visible Light 10h 21m
Length of Day
9h 19m
Waning Gibbous, 85% of the Moon is Illuminated
Dec 2
Waning Gibbous
Dec 6
Last Quarter
Dec 13
New
Dec 19
First Quarter
Dec 28
Full

Hourly Weather History & Observations

Time (CST) Temp. Windchill Dew Point Humidity Pressure Visibility Wind Dir Wind Speed Gust Speed Precip Events Conditions
12:56 AM 30.0 °F 25.2 °F 27.0 °F 88% 29.92 in 10.0 mi West 4.6 mph - N/A   Clear
1:56 AM 27.0 °F 23.0 °F 25.0 °F 92% 29.93 in 9.0 mi West 3.5 mph - N/A   Clear
2:56 AM 27.0 °F - 24.1 °F 89% 29.94 in 10.0 mi Calm Calm - N/A   Clear
3:56 AM 28.0 °F 20.8 °F 25.0 °F 88% 29.96 in 10.0 mi SW 6.9 mph - N/A   Clear
4:56 AM 28.9 °F - 26.1 °F 89% 29.97 in 10.0 mi Calm Calm - N/A   Clear
5:56 AM 26.1 °F - 23.0 °F 88% 29.98 in 10.0 mi Calm Calm - N/A   Clear
6:56 AM 25.0 °F 18.1 °F 21.9 °F 88% 30.00 in 10.0 mi SE 5.8 mph - N/A   Clear
7:56 AM 25.0 °F - 21.0 °F 85% 30.01 in 10.0 mi Calm Calm - N/A   Clear
8:56 AM 35.1 °F - 30.9 °F 85% 30.02 in 10.0 mi Calm Calm - N/A   Clear
10:56 AM 51.1 °F - 36.0 °F 56% 29.97 in 10.0 mi SSE 9.2 mph - N/A   Clear
12:56 PM 61.0 °F - 36.0 °F 39% 29.90 in 10.0 mi SSE 13.8 mph - N/A   Clear
1:56 PM 63.0 °F - 36.0 °F 37% 29.85 in 10.0 mi SSE 16.1 mph - N/A   Clear
2:56 PM 63.0 °F - 37.0 °F 38% 29.82 in 10.0 mi SSE 13.8 mph - N/A   Clear
3:56 PM 61.0 °F - 39.0 °F 44% 29.82 in 10.0 mi SE 6.9 mph - N/A   Clear
4:56 PM 55.9 °F - 37.9 °F 51% 29.82 in 10.0 mi ESE 10.4 mph - N/A   Clear
6:56 PM 55.0 °F - 37.9 °F 53% 29.79 in 10.0 mi SSE 13.8 mph - N/A   Clear
7:56 PM 55.0 °F - 39.0 °F 55% 29.77 in 10.0 mi South 17.3 mph - N/A   Clear
8:56 PM 54.0 °F - 37.9 °F 55% 29.75 in 10.0 mi South 18.4 mph 24.2 mph N/A   Clear
9:56 PM 53.1 °F - 39.0 °F 59% 29.73 in 10.0 mi South 16.1 mph - N/A   Clear
10:56 PM 48.9 °F - 39.0 °F 69% 29.72 in 10.0 mi SSE 13.8 mph - N/A   Clear
11:56 PM 48.0 °F - 39.0 °F 71% 29.68 in 10.0 mi SSE 11.5 mph - N/A   Clear